Vertical_Velocity
1 2 4 4 -2 8 -1 6 4 13 -25 13 -6 -16 -14 23 10 12 2 5 -6 1
-4 3 1 4 1 2 3 10 7 -2 -16 36 28 -9 -75 6 2 3 18 -1 8 1
9 11 4 -3 10 -0 13 11 9 1 -14 -7 -1 11 -12 -7 -3 8 -0 1 35 43
3 -2 7 11 7 6 7 22 7 1 -12 -3 -1 12 14 -0 23 -3 25 -58 20 49
3 -2 -11 -9 15 17 17 16 7 -16 4 -1 -4 12 -3 -13 11 -4 19 -0 14 7
-22 -1 6 -5 34 25 14 3 9 1 9 6 -2 14 -12 -11 -6 13 1 -2 -8 -1
8 -8 2 5 8 12 9 -6 -31 15 0 9 2 7 10 4 5 -2 5 -0 -7 -0
0 10 19 -1 15 1 4 -1 1 14 6 -2 -0 -6 -5 1 -7 -1 5 -1 -3 -4
9 1 -5 -2 -5 5 -1 -9 -4 -10 5 -7 -6 4 1 3 -1 -3 -7 -5 -4 1
0 0 1 -3 -1 -5 -8 6 5 3 -2 -4 -1 5 5 -4 -3 8 -5 -2 -0 -4
-1 -1 6 -3 -4 -8 -4 -8 -3 1 -1 3 1 2 -5 1 -1 -3 5 -6 -12 -2
-1 -2 -2 -4 1 3 4 3 -1 -7 -4 -3 -8 -5 -12 -9 -5 -0 -5 2 -2 1
-1 -2 -4 -2 -2 2 -1 -2 -1 -0 -3 1 -2 1 -0 -1 -6 -10 -7 -7 -1 0
-1 -3 -2 0 -0 -2 -4 -4 -8 -8 -4 -8 -8 -12 -13 -14 -7 -5 -4 -3 -6 -6
Height
1412 1407 1403 1399 1397 1398 1396 1398 1395 1393 1407 1405 1405 1387 1407 1425 1430 1440 1441 1443 1444 1450
1411 1405 1399 1395 1394 1392 1394 1394 1393 1393 1400 1405 1404 1396 1418 1420 1429 1434 1438 1444 1438 1442
1411 1405 1398 1396 1391 1388 1391 1392 1390 1390 1396 1401 1399 1402 1415 1421 1429 1429 1431 1432 1432 1422
1414 1407 1400 1398 1394 1391 1390 1389 1382 1390 1401 1404 1409 1409 1412 1425 1421 1422 1423 1427 1433 1412
1420 1416 1407 1410 1405 1395 1387 1384 1382 1396 1399 1406 1407 1408 1411 1416 1422 1424 1427 1431 1432 1419
1432 1421 1419 1417 1414 1396 1394 1389 1385 1401 1403 1406 1410 1410 1412 1422 1424 1422 1420 1420 1420 1423
1441 1437 1432 1415 1409 1400 1398 1400 1405 1405 1410 1414 1414 1411 1424 1425 1423 1424 1422 1421 1425 1426
1450 1440 1436 1430 1423 1417 1413 1414 1418 1416 1415 1416 1419 1421 1432 1425 1425 1425 1424 1427 1429 1431
1455 1449 1440 1437 1433 1430 1427 1428 1430 1429 1421 1425 1432 1432 1435 1429 1425 1429 1431 1432 1435 1435
1462 1457 1452 1448 1443 1440 1438 1436 1433 1429 1430 1433 1435 1434 1431 1429 1433 1432 1431 1435 1430 1432
1470 1465 1461 1457 1453 1452 1450 1443 1439 1437 1437 1438 1436 1437 1437 1437 1437 1437 1435 1431 1437 1440
1478 1474 1469 1465 1462 1459 1455 1453 1450 1449 1449 1444 1442 1440 1440 1441 1442 1441 1441 1442 1441 1438
1485 1481 1477 1475 1471 1468 1464 1461 1457 1454 1450 1450 1450 1448 1447 1445 1442 1444 1444 1443 1444 1439
1490 1487 1485 1483 1480 1478 1475 1471 1466 1463 1461 1458 1459 1458 1458 1456 1455 1450 1447 1443 1439 1437